Weather History for Manhattan, KS

Change the Weather History Date:

Monday, September 2, 2013

  Actual Average Record
Temperature  
Mean Temperature 70 °F 73 °F  
Max Temperature 85 °F 86 °F 111 °F (2000)
Min Temperature 55 °F 60 °F 53 °F (2003)
Degree Days  
Heating Degree Days 0 0  
Month to date heating degree days 0 0  
Since 1 July heating degree days 3 3  
Cooling Degree Days 5 9  
Month to date cooling degree days 16 18  
Year to date cooling degree days 1244 1201  
Growing Degree Days 20 (Base 50)    
Moisture  
Dew Point 60 °F    
Average Humidity 72    
Maximum Humidity 100    
Minimum Humidity 43    
Precipitation  
Precipitation 0.00 in 0.15 in 0.30 in (2010)
Month to date precipitation T 0.31  
Year to date precipitation 21.22 24.85  
Sea Level Pressure  
Sea Level Pressure 30.03 in    
Wind  
Wind Speed 2 mph (NE)    
Max Wind Speed 12 mph    
Max Gust Speed 17 mph    
Visibility 10 miles    
Events Rain    
T = Trace of Precipitation, MM = Missing Value Source: NWS Daily Summary

Daily Weather History Graph

Daily Weather History Graph

Search for Another Location

Airport:

Trip Planner

Search our weather history database for the weather conditions in past years. The results will help you decide how hot, cold, wet, or windy it might be!

Date:

Astronomy

Sep. 02, 2013 Rise Set
Actual Time 6:56 AM CDT 7:55 PM CDT
Civil Twilight 6:29 AM CDT 8:22 PM CDT
Nautical Twilight 5:56 AM CDT 8:55 PM CDT
Astronomical Twilight 5:22 AM CDT 9:28 PM CDT
Moon 4:15 AM CDT (9/2) 6:08 PM CDT (9/2)
Length of Visible Light 13h 53m
Length of Day
12h 58m
Waning Crescent, 8% of the Moon is Illuminated
Sep 2
Waning Crescent
Sep 5
New
Sep 12
First Quarter
Sep 19
Full
Sep 26
Last Quarter

Hourly Weather History & Observations

Time (CDT) Temp. Heat Index Dew Point Humidity Pressure Visibility Wind Dir Wind Speed Gust Speed Precip Events Conditions
12:52 AM 62.1 °F - 60.1 °F 93% 30.00 in 10.0 mi Calm Calm - 0.00 in Rain Light Rain
1:52 AM 61.0 °F - 59.0 °F 93% 30.00 in 10.0 mi Calm Calm - 0.00 in   Clear
2:52 AM 61.0 °F - 59.0 °F 93% 30.00 in 10.0 mi Calm Calm - N/A   Clear
3:52 AM 59.0 °F - 57.9 °F 96% 30.00 in 10.0 mi Calm Calm - N/A   Clear
4:52 AM 57.9 °F - 57.0 °F 97% 30.01 in 10.0 mi Calm Calm - 0.00 in   Clear
5:52 AM 57.9 °F - 55.9 °F 93% 30.02 in 3.0 mi Calm Calm - N/A   Clear
6:52 AM 55.0 °F - 54.0 °F 96% 30.04 in 8.0 mi Calm Calm - N/A   Clear
7:52 AM 62.1 °F - 60.1 °F 93% 30.05 in 10.0 mi Calm Calm - N/A   Clear
8:52 AM 66.9 °F - 61.0 °F 81% 30.06 in 10.0 mi Calm Calm - N/A   Clear
9:52 AM 71.1 °F - 62.1 °F 73% 30.08 in 10.0 mi Calm Calm - N/A   Clear
10:52 AM 75.9 °F - 62.1 °F 62% 30.08 in 10.0 mi Variable 4.6 mph - N/A   Clear
11:52 AM 79.0 °F - 62.1 °F 56% 30.07 in 10.0 mi North 8.1 mph - N/A   Scattered Clouds
12:52 PM 80.1 °F 81.1 °F 61.0 °F 52% 30.06 in 10.0 mi NNE 6.9 mph - N/A   Mostly Cloudy
1:52 PM 82.9 °F 82.8 °F 59.0 °F 44% 30.05 in 10.0 mi NNE 9.2 mph - N/A   Clear
2:52 PM 84.0 °F 84.0 °F 60.1 °F 44% 30.04 in 10.0 mi NE 8.1 mph - N/A   Partly Cloudy
3:52 PM 84.0 °F 83.8 °F 59.0 °F 43% 30.01 in 10.0 mi NNE 6.9 mph - N/A   Partly Cloudy
4:52 PM 82.9 °F 82.8 °F 59.0 °F 44% 30.00 in 10.0 mi Variable 4.6 mph - N/A   Partly Cloudy
5:52 PM 84.0 °F 83.8 °F 59.0 °F 43% 29.99 in 10.0 mi Calm Calm - N/A   Clear
6:52 PM 81.0 °F 81.6 °F 60.1 °F 49% 29.99 in 10.0 mi NNE 4.6 mph - N/A   Clear
7:52 PM 75.0 °F - 60.1 °F 60% 30.00 in 10.0 mi ENE 3.5 mph - N/A   Clear
8:52 PM 71.1 °F - 60.1 °F 68% 30.01 in 10.0 mi Calm Calm - N/A   Clear
9:52 PM 66.9 °F - 60.1 °F 79% 30.02 in 10.0 mi Calm Calm - N/A   Clear
10:52 PM 64.0 °F - 60.1 °F 87% 30.03 in 10.0 mi Calm Calm - N/A   Clear
11:52 PM 62.1 °F - 60.1 °F 93% 30.04 in 10.0 mi Calm Calm - N/A   Clear